SNUGLITE 2
1 52899U 22065F   25356.37173425  .00001215  00000-0  24165-3 0  9991
2 52899  98.1933 136.8505 0006909 211.8743 148.2042 14.63861749185123
UmKA 1 (RS40S)
1 57172U 23091G   25356.56247986  .00007274  00000-0  35719-3 0  9993
2 57172  97.5323  50.9846 0013955  21.3805 338.8009 15.18292254137187
CubeBel-2 (EU11S)
1 57175U 23091K   25356.56891584  .00014640  00000-0  60091-3 0  9991
2 57175  97.5322  53.5671 0011323  24.4376 335.7396 15.24269062137350
RS-38S
1 57189U 23091Z   25356.58480830  .00017201  00000-0  60034-3 0  9999
2 57189  97.5349  58.1185 0007865 348.6494  11.4567 15.29642482137638
SONATE-2
1 59112U 24043Q   25356.62498227  .00028284  00000-0  58789-3 0  9996
2 59112  97.5338 133.2490 0009357 127.4012 232.8090 15.45579147100506
MO-122
1 60209U 24125G   25356.81733456  .00034313  00000-0  68008-3 0  9998
2 60209  97.2510 207.2005 0014979 141.6370 218.5948 15.46850731 82165
GRBBeta
1 60237U 24128C   25356.58587623  .00004907  00000-0  34858-3 0  9991
2 60237  61.9907 115.1082 0055919  98.5274 262.2161 15.04849505 79674
Curium One
1 60242U 24128H   25356.53669072  .00009905  00000-0  61311-3 0  9998
2 60242  61.9801 109.9237 0055581  95.2372 265.5067 15.09063955 79767
ROBUSTA-3A
1 60243U 24128J   25356.80967669  .00009253  00000-0  58457-3 0  9995
2 60243  61.9872 110.5406 0055820  92.7443 268.0041 15.08371619 79789
CatSat
1 60246U 24125J   25356.80547139  .00039332  00000-0  92570-3 0  9996
2 60246  97.2295 204.0863 0034377 108.5965 251.9020 15.41224265 80071
HYPERVIEW-1G (RS66S)
1 61772U 24199AP  25356.88996398  .00045043  00000-0  84017-3 0  9998
2 61772  97.3195 226.4573 0008566 192.5997 167.5041 15.48632643107188
AO-123
1 61781U 24199AY  25356.86164845  .00011092  00000-0  35873-3 0  9993
2 61781  97.3236 222.2018 0013303 215.1521 144.8844 15.32150266106897
ZIMSAT 2
1 61783U 24199BA  25355.37070692  .00235620  00000-0  14200-2 0  9991
2 61783  97.3058 228.7877 0005306 149.2329 210.9249 15.77002175110367
HADES-R (SO-124)
1 62690U 25009CK  25356.19335483  .00216161  00000-0  24238-2 0  9994
2 62690  97.3872  79.2007 0001119 265.4088  94.7042 15.61953474 52256
HYDRA-T
1 62692U 25009CM  25356.22304821  .00245737  00000-0  25044-2 0  9999
2 62692  97.3846  79.4632 0001849 285.7419  74.3636 15.64316944 52271
JINJUSat 1B
1 63210U 25052A   25356.41939360  .00017592  00000-0  66593-3 0  9998
2 63210  97.4201 248.5161 0004628  23.4166 336.7282 15.26980260 43069
NUSHSAT 1
1 63211U 25052B   25356.21144804  .00021822  00000-0  79804-3 0  9998
2 63211  97.4183 248.4445 0004763  26.2065 333.9414 15.28075857 43045
TEVEL2-4
1 63213U 25052D   25356.15102772  .00019851  00000-0  74192-3 0  9995
2 63213  97.4099 247.9164 0004563  43.1537 317.0059 15.27378399 43027
TEVEL2-5
1 63214U 25052E   25356.41902283  .00018505  00000-0  69335-3 0  9998
2 63214  97.4098 248.1687 0004514  43.1217 317.0375 15.27309687 43060
TEVEL2-6
1 63215U 25052F   25355.64039829  .00014669  00000-0  55179-3 0  9998
2 63215  97.4108 247.3833 0004638  43.5649 316.5955 15.27230257 42947
TEVEL2-1
1 63217U 25052H   25355.68499863  .00014053  00000-0  53406-3 0  9990
2 63217  97.4079 247.2310 0005117  52.8030 307.3675 15.26897275 42940
TEVEL2-3
1 63218U 25052J   25355.68406741  .00013900  00000-0  52794-3 0  9993
2 63218  97.4081 247.2363 0005090  52.8696 307.3007 15.26919889 42945
TEVEL2-2
1 63219U 25052K   25355.68575860  .00013726  00000-0  52172-3 0  9999
2 63219  97.4081 247.2325 0005018  52.8199 307.3498 15.26898148 42940
TEVEL2-9
1 63237U 25052AD  25356.44481759  .00019444  00000-0  77029-3 0  9998
2 63237  97.4139 247.6783 0009028  55.1690 305.0396 15.25416020 43029
TEVEL2-7
1 63238U 25052AE  25356.45970820  .00019137  00000-0  76176-3 0  9993
2 63238  97.4143 247.6652 0009077  55.0351 305.1738 15.25258477 43028
TEVEL2-8
1 63239U 25052AF  25356.13747822  .00017228  00000-0  68702-3 0  9998
2 63239  97.4140 247.3301 0009117  56.1153 304.0951 15.25219821 42979
HYDRA-W
1 63490U 25052BL  25355.65727231  .00061623  00000-0  14113-2 0  9999
2 63490  97.4064 249.5722 0011001  49.0223 311.1974 15.42505668 43092
HADES-ICM (SO-125)
1 63492U 25052BN  25354.62441311  .00044847  00000-0  11078-2 0  9995
2 63492  97.4076 248.2315 0011390  53.7849 306.4449 15.40297586 42917
Dragonfly
1 65729U 98067XH  25356.51868607  .00205699  00000-0  13132-2 0  9994
2 65729  51.6245  85.5681 0007792 337.4255  22.6401 15.75175464 14703
RSP-03
1 65732U 98067XL  25356.54235272  .00144397  00000-0  11094-2 0  9999
2 65732  51.6262  86.4899 0005833 314.1528  45.8989 15.71055335 14704
GHS-01
1 65733U 98067XM  25356.51273131  .00278334  00000-0  14795-2 0  9993
2 65733  51.6292  84.7862 0008852 340.8891  19.1777 15.79083462 14723
BOTAN
1 65942U 98067XP  25356.30350127  .00120580  00000-0  12004-2 0  9993
2 65942  51.6283  90.9078 0003112 318.7343  41.3416 15.64805517 11364
BEE-1000
1 66650U 25274A   25356.07657025  .00001536  00000-0  15818-3 0  9997
2 66650  97.7404 283.0932 0010866 216.8480 143.1994 14.91691100  3795
SPIRONE
1 66657U 25274H   25356.73383052  .00002718  00000-0  27000-3 0  9992
2 66657  97.7400 283.7681 0010898 237.9796 122.0365 14.92506042  3895
K-HERO
1 66660U 25274L   25356.32284659  .00002278  00000-0  22428-3 0  9994
2 66660  97.7407 283.3860 0012681 245.4388 114.5511 14.93008780  3834
SNUGLITE-III DURI
1 66661U 25274M   25356.32037374  .00001983  00000-0  19529-3 0  9995
2 66661  97.7405 283.3886 0013280 246.8120 113.1701 14.93143920  3838
SilverSat
1 66909U 98067XV  25356.51144008  .00071888  00000-0  11325-2 0  9990
2 66909  51.6306  93.7929 0003866 288.2093  71.8476 15.52898333  3134
CEVROSAT1
1 98526U 25248E   25313.13142326  .00000000  00000-0  19360-3 0    02
2 98526  45.4084 218.4764 0001315 254.8982 242.1062 15.17981583    02
